Showing default

ITAMSAT, 22826

Orbit data source: Space-Track

ITAMSAT, 22826 is a payload satellite owned by Satellife (IT) in SSO that was launched on Sun, 26 Sep 1993 UTC via an ARIANE 40 launch vehicle from the French Guiana (FRGUI). Payload-class satellites include a variety of spacecraft equipped with specific instruments for various scientific and technological missions. These include communications satellites like Starlink; space stations such as the ISS; scientific satellites like the Hubble; Earth observation satellites from companies like Planet Labs, Umbra, and HawkEye 360; GPS; miniature CubeSats for education and research; and military/defense satellites.

Loading next visibility...
Identifier
22826, 1993-061D
Orbit
SSO
Country
Flag of ITIT
Related business
Manufacturer
SSTL
Mission
Partially operational Commercial Communications
Bus & Motor
UOSAT, Unknown motor
Mass
50 kg wet, 50 kg dry
Launch date (UTC)
1993-09-26 (32 years ago)
Launch vehicle
ARIANE 40
Launch site
French Guiana (FRGUI)
Object type
Payload
Rocket body
Debris
Shape & HBR
Box + 1 Ant, 3.3 m
Radar Cross Section
0.597 m², Medium (>0.1 m² and < 1m²)

Expand to show TLE details & history
Last TLE update: 10 hours ago

TLE from 10 hours ago
0 ITAMSAT
1 22826U 93061D   25261.11659680  .00000107  00000-0  57599-4 0  9998
2 22826  98.7218 323.0192 0009395 156.1109 204.0511 14.31245819668399
Epoch: 2025-09-18T02:47Z
TLE epoch observation values (Epoch: 2025-09-18T02:47:53.963Z)
Latitude
-0.00006°
Longitude
-76.23844°
Altitude
796.649 km
Speed
7.452 km/s
True Right ascension
21h 32m 04s
True Declination
0° 00' 00"
Sunlit
Object was in full shadow at epoch
Visualization orbit readout
Latitude
Unknown
Longitude
Unknown
Altitude
Unknown
Speed
Unknown
Apparent Right ascension
Unknown
Apparent Declination
Unknown
Sunlit
N/A
Visualization observer readout
Local Sidereal Time
06:03:32
Azimuth
Unknown
Elevation
Unknown
Doppler factor
Unknown
Orbital elements
Apogee altitude
791.443 km
Perigee altitude
777.984 km
Semi-major axis
7,162.851 km
Eccentricity
0.00094
Inclination
98.7218°
RAAN
323.0192°
Arg. of periapsis
156.1109°
True anomaly
204.00727°
Mean anomaly
204.0511°
Eccentric anomaly
204.02918°
Mean motion
3.58026 °/min
Orbital period
100.55 mins
BSTAR
0.000057599
Loading maneuver chart data...
Computing Atmospheric mass density...
Loading historical data...
Loading historical data...
Loading historical data...
Loading historical data...
Loading historical data...
Loading historical data...
Loading historical data...

Documentation

Showing up to 5 results
|